This is the latest recevied weather packets stored in our database for station/object KC4LZN. If no packets are shown the sender has not sent any weather packets the latest 10 day(s).
| Time | Temp. | Humidity | Pressure | Rain* | Wind** | Luminosity | Snow |
|---|---|---|---|---|---|---|---|
| 1777768065 | 21.11° C | 94% | 1011.7 hPa | 0 mm | - | 0 W/m² | - |
| 1777767763 | 21.11° C | 94% | 1011.6 hPa | 0 mm | - | 0 W/m² | - |
| 1777767459 | 21.11° C | 94% | 1011.5 hPa | 0 mm | - | 0 W/m² | - |
| 1777767155 | 21.11° C | 94% | 1011.7 hPa | 0 mm | - | 1 W/m² | - |
| 1777766853 | 21.11° C | 94% | 1011.7 hPa | 0 mm | - | 1 W/m² | - |
| 1777766550 | 21.11° C | 94% | 1011.7 hPa | 0 mm | - | 4 W/m² | - |
| 1777766247 | 21.11° C | 94% | 1011.6 hPa | 0 mm | - | 7 W/m² | - |
| 1777765945 | 21.11° C | 94% | 1011.6 hPa | 0 mm | - | 8 W/m² | - |
| 1777765641 | 21.11° C | 93% | 1011.6 hPa | 0 mm | - | 10 W/m² | - |
| 1777765338 | 21.11° C | 93% | 1011.6 hPa | 0 mm | - | 13 W/m² | - |
| 1777765034 | 21.11° C | 93% | 1011.4 hPa | 0 mm | - | 16 W/m² | - |
| 1777764731 | 21.11° C | 94% | 1011.1 hPa | 0 mm | - | 18 W/m² | - |
| 1777764427 | 21.11° C | 94% | 1011.3 hPa | 0 mm | - | 22 W/m² | - |
| 1777764124 | 21.11° C | 94% | 1011.1 hPa | 0 mm | - | 25 W/m² | - |
| 1777763821 | 21.11° C | 94% | 1011.4 hPa | 0 mm | - | 21 W/m² | - |
| 1777763519 | 21.11° C | 93% | 1011.3 hPa | 0 mm | - | 21 W/m² | - |
| 1777763217 | 21.11° C | 94% | 1011.2 hPa | 0 mm | - | 26 W/m² | - |
| 1777762915 | 21.11° C | 94% | 1011.3 hPa | 0 mm | - | 34 W/m² | - |
| 1777762610 | 21.11° C | 94% | 1011.4 hPa | 0 mm | - | 37 W/m² | - |
| 1777762308 | 21.11° C | 95% | 1011.5 hPa | 0 mm | - | 41 W/m² | - |
| 1777762004 | 20.56° C | 95% | 1011.5 hPa | 0 mm | - | 44 W/m² | - |
| 1777761701 | 20.56° C | 95% | 1011.8 hPa | 0 mm | - | 48 W/m² | - |
| 1777761399 | 20.56° C | 95% | 1011.5 hPa | 0 mm | - | 59 W/m² | - |
| 1777761097 | 20.56° C | 95% | 1011.6 hPa | 0 mm | - | 48 W/m² | - |
| 1777760794 | 20.56° C | 95% | 1011.3 hPa | 0 mm | - | 49 W/m² | - |
* Rain latest hour (hover to see other rain measurements)
** Current wind speed in m/s (hover to see current wind gust speed)